Minot, ND

12:09 PM CDT on June 28, 2017 (GMT -0500)
Minot International

Weather History for KMOT - January, 2012

Change the Weather History Date:

Monday, January 23, 2012

  Actual Average Record
Temperature  
Mean Temperature 14 °F 12 °F  
Max Temperature 24 °F 21 °F 54 °F (1944)
Min Temperature 4 °F 4 °F -46 °F (1922)
Degree Days  
Heating Degree Days 51 53  
Month to date heating degree days 1026 1219  
Since 1 July heating degree days 3916 4814  
Moisture  
Dew Point 6 °F    
Average Humidity 70    
Maximum Humidity 86    
Minimum Humidity 54    
Precipitation  
Precipitation T in 0.02 in 0.43 in (1946)
Month to date precipitation 0.02 0.40  
Year to date precipitation 0.02 0.40  
Sea Level Pressure  
Sea Level Pressure 29.91 in    
Wind  
Wind Speed 8 mph (WNW)    
Max Wind Speed 21 mph    
Max Gust Speed 25 mph    
Visibility 10 miles    
Events      
T = Trace of Precipitation, MM = Missing Value Source: NWS Daily Summary

Daily Weather History Graph

Daily Weather History Graph

Search for Another Location

Airport or City:

Trip Planner

Search our weather history database for the weather conditions in past years. The results will help you decide how hot, cold, wet, or windy it might be!

Date:

Astronomy

Jan. 23, 2012 Rise Set
Actual Time 8:24 AM CST 5:29 PM CST
Civil Twilight 7:50 AM CST 6:04 PM CST
Nautical Twilight 7:11 AM CST 6:42 PM CST
Astronomical Twilight 6:34 AM CST 7:19 PM CST
Moon 8:15 AM CST (1/23) 6:26 PM CST (1/23)
Length of Visible Light 10h 14m
Length of Day
9h 05m
New Moon, 0% of the Moon is Illuminated
Jan 23
New Moon
Jan 30
First Quarter
Feb 7
Full
Feb 14
Last Quarter
Feb 21
New

Hourly Weather History & Observations

Time (CST) Temp. Windchill Dew Point Humidity Pressure Visibility Wind Dir Wind Speed Gust Speed Precip Events Conditions
12:54 AM 15.1 °F -0.6 °F 9.0 °F 77% 29.86 in 10.0 mi WNW 16.1 mph 23.0 mph 0.00 in   Overcast
1:54 AM 15.1 °F 0.5 °F 10.0 °F 80% 29.86 in 8.0 mi NW 13.8 mph - N/A   Overcast
2:21 AM 15.8 °F 1.4 °F 10.4 °F 79% 29.78 in 9.0 mi WNW 13.8 mph - 0.00 in   Overcast
2:54 AM 15.1 °F -0.1 °F 10.0 °F 80% 29.88 in 10.0 mi NW 15.0 mph - 0.00 in   Overcast
3:54 AM 15.1 °F 0.5 °F 8.1 °F 74% 29.89 in 10.0 mi WNW 13.8 mph - N/A   Overcast
4:54 AM 14.0 °F 1.2 °F 8.1 °F 77% 29.90 in 10.0 mi WNW 10.4 mph - N/A   Overcast
5:44 AM 10.4 °F -4.8 °F 5.0 °F 79% 29.82 in 10.0 mi West 12.7 mph - N/A   Scattered Clouds
5:54 AM 9.0 °F -7.3 °F 3.9 °F 80% 29.93 in 10.0 mi West 13.8 mph - N/A   Clear
6:54 AM 6.8 °F -9.3 °F 1.4 °F 79% 29.84 in 10.0 mi West 12.7 mph - N/A   Clear
7:54 AM 5.0 °F -9.1 °F -0.0 °F 80% 29.94 in 10.0 mi WNW 9.2 mph - N/A   Clear
8:54 AM 3.9 °F -9.4 °F -0.0 °F 84% 29.96 in 10.0 mi West 8.1 mph - N/A   Clear
9:54 AM 8.1 °F -6.2 °F 1.9 °F 76% 29.96 in 10.0 mi West 10.4 mph - N/A   Clear
10:54 AM 12.0 °F 0.5 °F 3.9 °F 70% 29.96 in 10.0 mi WNW 8.1 mph - N/A   Clear
11:54 AM 14.0 °F 3.9 °F 3.9 °F 64% 29.94 in 10.0 mi West 6.9 mph - N/A   Clear
12:54 PM 17.1 °F 6.6 °F 6.1 °F 62% 29.92 in 10.0 mi West 8.1 mph - N/A   Clear
1:54 PM 19.9 °F 11.1 °F 8.1 °F 60% 29.91 in 10.0 mi West 6.9 mph - N/A   Clear
2:54 PM 21.0 °F 16.2 °F 8.1 °F 57% 29.89 in 10.0 mi West 3.5 mph - N/A   Clear
3:54 PM 23.0 °F - 9.0 °F 55% 29.91 in 10.0 mi Calm Calm - N/A   Clear
4:54 PM 21.9 °F 17.2 °F 9.0 °F 58% 29.93 in 10.0 mi NE 3.5 mph - N/A   Clear
5:54 PM 14.0 °F 6.5 °F 7.0 °F 74% 29.94 in 10.0 mi East 4.6 mph - N/A   Clear
6:54 PM 12.9 °F 5.2 °F 6.1 °F 74% 29.95 in 9.0 mi ESE 4.6 mph - N/A   Clear
7:54 PM 12.0 °F 1.5 °F 6.1 °F 77% 29.95 in 10.0 mi ESE 6.9 mph - N/A   Clear
8:54 PM 12.9 °F 6.9 °F 6.1 °F 74% 29.95 in 10.0 mi ESE 3.5 mph - N/A   Clear
9:54 PM 12.0 °F 4.1 °F 7.0 °F 80% 29.95 in 10.0 mi ESE 4.6 mph - N/A   Clear
10:54 PM 10.9 °F 4.7 °F 6.1 °F 81% 29.94 in 10.0 mi SE 3.5 mph - N/A   Clear
11:54 PM 12.0 °F 5.9 °F 7.0 °F 80% 29.94 in 10.0 mi SE 3.5 mph - N/A   Clear